Weather History for Dublin, VA

Change the Weather History Date:

Wednesday, August 27, 2014

  Actual Average (KBCB) Record (KBCB)
Temperature  
Mean Temperature 66 °F 69 °F  
Max Temperature 82 °F 81 °F 96 °F (1959)
Min Temperature 49 °F 57 °F 40 °F (1968)
Degree Days  
Heating Degree Days 0 1  
Month to date heating degree days 2  
Since 1 June heating degree days 46  
Since 1 July heating degree days 8  
Cooling Degree Days 0 5  
Month to date cooling degree days 152  
Year to date cooling degree days 496  
Since 1 June cooling degree days 467  
Growing Degree Days 16 (Base 50)    
Moisture  
Dew Point 60 °F    
Average Humidity 80    
Maximum Humidity 100    
Minimum Humidity 47    
Precipitation  
Precipitation 0.00 in 0.11 in 3.44 in (1992)
Month to date precipitation 3.17  
Year to date precipitation 28.77  
Snow  
Snow 0.00 in - - ()
Month to date snowfall  
Since 1 June snowfall  
Since 1 July snowfall  
Snow Depth -    
Sea Level Pressure  
Sea Level Pressure 30.16 in    
Wind  
Wind Speed 1 mph (SW)    
Max Wind Speed 6 mph    
Max Gust Speed -    
Visibility 8 miles    
Events Fog    
T = Trace of Precipitation, MM = Missing Value Source: NWS Daily Summary

Daily Weather History Graph

Daily Weather History Graph

Search for Another Location

Airport:

Trip Planner

Search our weather history database for the weather conditions in past years. The results will help you decide how hot, cold, wet, or windy it might be!

Date:

Astronomy

Aug. 27, 2014 Rise Set
Actual Time 6:49 AM EDT 7:58 PM EDT
Civil Twilight 6:22 AM EDT 8:25 PM EDT
Nautical Twilight 5:50 AM EDT 8:57 PM EDT
Astronomical Twilight 5:16 AM EDT 9:30 PM EDT
Moon 8:40 AM EDT (8/27) 8:54 PM EDT (8/27)
Length of Visible Light 14h 02m
Length of Day
13h 09m
Waxing Crescent, 4% of the Moon is Illuminated
Aug 27
Waxing Crescent
Sep 2
First Quarter
Sep 8
Full
Sep 15
Last Quarter
Sep 24
New

Hourly Weather History & Observations

Time (EDT) Temp. Heat Index Dew Point Humidity Pressure Visibility Wind Dir Wind Speed Gust Speed Precip Events Conditions
12:15 AM 57.6 °F - 57.6 °F 100% 30.21 in 10.0 mi Calm Calm - N/A   Clear
12:35 AM 57.6 °F - 57.6 °F 100% 30.20 in 10.0 mi Calm Calm - N/A   Clear
12:55 AM 56.7 °F - 56.7 °F 100% 30.20 in 10.0 mi Calm Calm - N/A   Clear
1:15 AM 57.2 °F - 57.2 °F 100% 30.19 in 10.0 mi Calm Calm - N/A   Clear
1:35 AM 55.8 °F - 55.8 °F 100% 30.19 in 10.0 mi Calm Calm - N/A   Clear
1:55 AM 56.7 °F - 56.7 °F 100% 30.19 in 10.0 mi Calm Calm - N/A   Clear
2:15 AM 55.9 °F - 55.9 °F 100% 30.19 in 10.0 mi Calm Calm - N/A   Clear
2:35 AM 56.3 °F - 56.3 °F 100% 30.18 in 10.0 mi Calm Calm - N/A   Clear
2:55 AM 55.6 °F - 55.6 °F 100% 30.17 in 10.0 mi Calm Calm - N/A   Clear
3:15 AM 55.0 °F - 55.0 °F 100% 30.17 in 10.0 mi Calm Calm - N/A   Clear
3:35 AM 55.6 °F - 55.6 °F 100% 30.16 in 10.0 mi Calm Calm - N/A   Clear
3:55 AM 55.2 °F - 55.2 °F 100% 30.16 in 10.0 mi Calm Calm - N/A   Clear
4:15 AM 54.1 °F - 54.1 °F 100% 30.16 in 10.0 mi Calm Calm - N/A   Clear
4:35 AM 53.2 °F - 53.2 °F 100% 30.16 in 10.0 mi Calm Calm - N/A   Clear
4:55 AM 52.2 °F - 52.2 °F 100% 30.17 in 0.8 mi Calm Calm - N/A   Mostly Cloudy
5:15 AM 53.4 °F - 53.4 °F 100% 30.17 in 3.0 mi South 3.5 mph - N/A   Scattered Clouds
5:35 AM 53.6 °F - 53.6 °F 100% 30.17 in 7.0 mi South 3.5 mph - N/A   Clear
5:55 AM 53.2 °F - 53.2 °F 100% 30.17 in 7.0 mi Calm Calm - N/A   Clear
6:15 AM 51.3 °F - 51.3 °F 100% 30.17 in 0.8 mi Calm Calm - N/A   Mostly Cloudy
6:35 AM 50.5 °F - 50.5 °F 100% 30.18 in 1.2 mi Calm Calm - N/A   Mostly Cloudy
6:55 AM 50.0 °F - 50.0 °F 100% 30.19 in 2.5 mi Calm Calm - N/A   Scattered Clouds
7:15 AM 49.8 °F - 49.8 °F 100% 30.19 in 0.2 mi Calm Calm - N/A Fog Fog
7:35 AM 50.9 °F - 50.9 °F 100% 30.20 in 0.2 mi Calm Calm - N/A Fog Fog
7:55 AM 52.0 °F - 52.0 °F 100% 30.21 in 0.2 mi Calm Calm - N/A Fog Fog
8:15 AM 54.0 °F - 54.0 °F 100% 30.21 in 2.0 mi Calm Calm - N/A   Overcast
8:35 AM 56.1 °F - 56.1 °F 100% 30.21 in 10.0 mi Calm Calm - N/A   Scattered Clouds
8:55 AM 57.2 °F - 57.2 °F 100% 30.21 in 4.0 mi Calm Calm - N/A   Mostly Cloudy
9:15 AM 57.6 °F - 57.6 °F 100% 30.21 in 0.8 mi Calm Calm - N/A   Overcast
9:35 AM 59.4 °F - 59.4 °F 100% 30.20 in 4.0 mi Calm Calm - N/A   Overcast
9:55 AM 61.7 °F - 61.7 °F 100% 30.21 in 10.0 mi Calm Calm - N/A   Mostly Cloudy
10:15 AM 64.2 °F - 64.0 °F 99% 30.21 in 10.0 mi Calm Calm - N/A   Scattered Clouds
10:35 AM 66.7 °F - 63.0 °F 88% 30.20 in 10.0 mi Calm Calm - N/A   Clear
10:55 AM 69.3 °F - 61.7 °F 77% 30.20 in 10.0 mi Calm Calm - N/A   Clear
11:15 AM 71.2 °F - 62.8 °F 75% 30.20 in 10.0 mi Calm Calm - N/A   Clear
11:35 AM 72.9 °F - 62.8 °F 71% 30.19 in 10.0 mi Calm Calm - N/A   Clear
11:55 AM 74.1 °F - 62.8 °F 68% 30.19 in 10.0 mi Calm Calm - N/A   Clear
12:15 PM 75.2 °F - 63.0 °F 66% 30.19 in 10.0 mi Calm Calm - N/A   Clear
12:35 PM 76.5 °F - 61.7 °F 60% 30.18 in 10.0 mi Calm Calm - N/A   Clear
12:55 PM 77.2 °F - 62.4 °F 60% 30.18 in 10.0 mi Calm Calm - N/A   Clear
1:15 PM 78.3 °F - 61.5 °F 56% 30.17 in 10.0 mi Calm Calm - N/A   Clear
1:35 PM 78.4 °F - 62.1 °F 57% 30.17 in 10.0 mi NE 4.6 mph - N/A   Clear
1:55 PM 79.3 °F - 61.9 °F 55% 30.16 in 10.0 mi ENE 5.8 mph - N/A   Clear
2:15 PM 79.9 °F - 62.1 °F 54% 30.16 in 7.0 mi East 5.8 mph - N/A   Clear
2:35 PM 79.9 °F - 61.2 °F 53% 30.15 in 10.0 mi East 4.6 mph - N/A   Clear
2:55 PM 80.4 °F 81.0 °F 59.2 °F 48% 30.14 in 10.0 mi Calm Calm - N/A   Clear
3:15 PM 81.9 °F 82.2 °F 60.1 °F 47% 30.13 in 10.0 mi SSE 3.5 mph - N/A   Clear
3:35 PM 82.0 °F 82.5 °F 60.8 °F 48% 30.13 in 10.0 mi South 3.5 mph - N/A   Clear
3:55 PM 82.6 °F 83.1 °F 60.8 °F 48% 30.13 in 10.0 mi West 3.5 mph - N/A   Clear
4:15 PM 82.4 °F 83.2 °F 61.9 °F 50% 30.12 in 10.0 mi Calm Calm - N/A   Clear
4:35 PM 82.6 °F 83.4 °F 62.1 °F 50% 30.12 in 10.0 mi Calm Calm - N/A   Clear
4:55 PM 81.7 °F 82.3 °F 61.0 °F 49% 30.11 in 10.0 mi Calm Calm - N/A   Clear
5:15 PM 82.2 °F 83.3 °F 62.8 °F 52% 30.12 in 10.0 mi Calm Calm - N/A   Clear
5:35 PM 82.9 °F 83.7 °F 61.7 °F 49% 30.11 in 10.0 mi Calm Calm - N/A   Clear
5:55 PM 82.4 °F 83.5 °F 63.0 °F 52% 30.10 in 10.0 mi West 3.5 mph - N/A   Clear
6:15 PM 81.7 °F 82.9 °F 63.0 °F 53% 30.11 in 10.0 mi West 4.6 mph - N/A   Clear
6:35 PM 81.7 °F 82.6 °F 62.1 °F 51% 30.10 in 10.0 mi Calm Calm - N/A   Clear
6:55 PM 81.0 °F 82.2 °F 63.0 °F 54% 30.10 in 10.0 mi Calm Calm - N/A   Clear
7:15 PM 80.6 °F 82.4 °F 65.1 °F 59% 30.09 in 10.0 mi Calm Calm - N/A   Clear
7:35 PM 78.6 °F - 64.6 °F 62% 30.08 in 10.0 mi Calm Calm - N/A   Clear
7:55 PM 77.0 °F - 64.4 °F 65% 30.08 in 10.0 mi Calm Calm - N/A   Clear
8:15 PM 74.5 °F - 66.0 °F 75% 30.09 in 10.0 mi Calm Calm - N/A   Clear
8:35 PM 72.9 °F - 65.7 °F 78% 30.09 in 10.0 mi Calm Calm - N/A   Clear
8:55 PM 72.5 °F - 64.4 °F 76% 30.10 in 10.0 mi West 4.6 mph - N/A   Clear
9:15 PM 70.7 °F - 65.7 °F 84% 30.11 in 10.0 mi West 3.5 mph - N/A   Clear
9:35 PM 71.6 °F - 64.2 °F 77% 30.11 in 10.0 mi Calm Calm - N/A   Clear
9:55 PM 70.5 °F - 64.2 °F 80% 30.12 in 10.0 mi West 4.6 mph - N/A   Clear
10:15 PM 71.6 °F - 64.4 °F 78% 30.12 in 10.0 mi WSW 4.6 mph - N/A   Clear
10:35 PM 70.0 °F - 64.8 °F 83% 30.12 in 10.0 mi Calm Calm - N/A   Clear
10:55 PM 70.5 °F - 64.9 °F 82% 30.12 in 10.0 mi Calm Calm - N/A   Clear
11:15 PM 70.5 °F - 65.1 °F 83% 30.11 in 10.0 mi West 3.5 mph - N/A   Clear
11:55 PM 72.0 °F - 66.2 °F 82% 30.11 in 10.0 mi WNW 5.8 mph - N/A   Clear